{"data":{"norad_id":52375,"intl_designator":"2022-045AW","name":"STARLINK-3785","alt_names":[],"object_type":"PAYLOAD","status":"ACTIVE","operator":null,"country":"US","launch_date":"2022-04-29","launch_site_code":"AFETR","launch_vehicle":null,"mission":null,"orbit_class":"UNKNOWN","rcs_meters":null,"size_class":null,"mass_kg":null,"dimensions":null,"purposes":["comms"],"wikipedia_slug":null,"has_3d_model":false,"image_url":null,"decayed_at":null,"tle_current":{"epoch":"2026-09-20T00:59:39.730848Z","epoch_age_seconds":99298,"freshness":"FRESH","line1":"1 52375U 22045AW  26263.04143207  .00000280  00000+0  19424-4 0  9998","line2":"2 52375  53.1609  21.9921 0000890 111.0749 249.0348 15.34393860245465","mean_motion":15.3439386,"eccentricity":8.9e-5,"inclination_deg":53.1609,"raan_deg":21.9921,"arg_perigee_deg":111.0749,"mean_anomaly_deg":249.0348,"bstar":1.9424e-5,"rev_number":24546,"period_min":93.84813362066,"perigee_km":462.11265323633,"apogee_km":463.33032604749,"semimajor_km":6840.8584896419,"source":"CELESTRAK","updated_at":"2026-09-20T09:00:40.029862Z"}}}